User: anonymous   Login
Location: Unspecified
(0.0000°N, 0.0000°E)
Time: 06:09:47
(UTC+00:00)
Language:

USA 187 - Orbit

View from above orbital plane
View from above orbital plane
View from above satellite
View from above satellite

Ground track
Ground track

The orbit data is extracted from the following two-line orbital elements,

1 29240U 06024A   17294.32962941 0.00000000  00000-0  00000-0 0    01
2 29240   1.0739  75.7286 0015769 181.5454 178.4612  0.98611899    00
Epoch (UTC): 21 October 2017 07:54:39
Eccentricity: 0.0015769
inclination: 1.0739°
perigee height: 36191 km
apogee height: 36325 km
right ascension of ascending node: 75.7286°
argument of perigee: 181.5454°
revolutions per day: 0.98611899
mean anomaly at epoch: 178.4612°
orbit number at epoch: 0

The dashed part of the orbit path shows where the satellite is in the earth's shadow,  

DLR